| time (UTC) | temp C | wind direction | speed KPH | gust KPH | rain 1hr cm | rain 24hr cm | rain mn cm | humidity % | barometer mb |
| 20260506210029 | 28 | 305 | 6.4 | 16.1 | 0.00 | 0.00 | 0.00 | 17 | 1013.8 |
| 20260506200035 | 28 | 276 | 3.2 | 20.9 | 0.00 | 0.00 | 0.00 | 19 | 1015.0 |
| 20260506190034 | 26 | 307 | 6.4 | 16.1 | 0.00 | 0.00 | 0.00 | 21 | 1016.3 |
| 20260506180031 | 25 | 280 | 3.2 | 12.9 | 0.00 | 0.00 | 0.00 | 25 | 1017.1 |
| 20260506170034 | 22 | 295 | 3.2 | 9.7 | 0.00 | 0.00 | 0.00 | 28 | 1017.6 |
| 20260506160035 | 21 | 43 | 3.2 | 6.4 | 0.00 | 0.00 | 0.00 | 36 | 1017.5 |
| 20260506150039 | 18 | 49 | 1.6 | 4.8 | 0.00 | 0.00 | 0.00 | 40 | 1017.6 |
| 20260506140049 | 17 | 55 | 3.2 | 8.0 | 0.00 | 0.00 | 0.00 | 41 | 1017.5 |
| 20260506130054 | 16 | 61 | 3.2 | 6.4 | 0.00 | 0.00 | 0.00 | 44 | 1016.9 |
| 20260506120110 | 17 | 87 | 3.2 | 6.4 | 0.00 | 0.00 | 0.00 | 39 | 1016.0 |
| 20260506110054 | 18 | 171 | 0.0 | 4.8 | 0.00 | 0.00 | 0.00 | 37 | 1015.6 |
| 20260506100040 | 20 | 61 | 3.2 | 8.0 | 0.00 | 0.00 | 0.00 | 30 | 1015.0 |
| 20260506090106 | 20 | 89 | 8.0 | 14.5 | 0.00 | 0.00 | 0.00 | 31 | 1015.0 |
| 20260506080113 | 18 | 96 | 3.2 | 6.4 | 0.00 | 0.00 | 0.00 | 38 | 1015.4 |
| 20260506040031 | 25 | 102 | 12.9 | 24.1 | 0.00 | 0.00 | 0.00 | 23 | 1014.4 |
| 20260506030038 | 25 | 124 | 14.5 | 25.7 | 0.00 | 0.00 | 0.00 | 21 | 1013.5 |
| 20260506020106 | 26 | 96 | 12.9 | 35.4 | 0.00 | 0.00 | 0.00 | 21 | 1012.7 |
| 20260506010037 | 27 | 80 | 17.7 | 32.2 | 0.00 | 0.00 | 0.00 | 18 | 1011.6 |
| 20260506000054 | 29 | 119 | 22.5 | 40.2 | 0.00 | 0.00 | 0.00 | 13 | 1011.0 |
| 20260505230046 | 31 | 109 | 22.5 | 46.7 | 0.00 | 0.00 | 0.00 | 9 | 1010.4 |
| 20260505220034 | 32 | 84 | 14.5 | 32.2 | 0.00 | 0.00 | 0.00 | 8 | 1010.8 |